User: anonymous
Location: Reading
(52.0000°N, 0.0000°E)
Time: 08:58:07
(UTC+01:00)
Language:

Iridium 41 - Orbit

View from above orbital plane
View from above orbital plane
View from above satellite
View from above satellite

Ground track
Ground track

The orbit data is extracted from the following two-line orbital elements,

1 25040U 97069B   14294.48077872  .00000655  00000-0  22684-3 0  9929
2 25040 086.3971 067.2613 0001980 113.1957 315.8066 14.34216570887327
Epoch (UTC): 21 October 2014 11:32:19
Eccentricity: 0.0001980
inclination: 86.3971°
perigee height: 776 km
apogee height: 779 km
right ascension of ascending node: 67.2613°
argument of perigee: 113.1957°
revolutions per day: 14.34216570
mean anomaly at epoch: 315.8066°
orbit number at epoch: 88732

The dashed part of the orbit path shows where the satellite is in the earth's shadow,  

DLR